This demonstration page uses our WeatherBlox Daily Observations layout. Learn more.

Left ArrowRight Arrow

38.80484, -77.04692

Hourly Observations for February 11, 2016

Temp ( °F °C ) Dew Point ( °F °C ) Humidity (%) Winds ( mph kmh ) Pressure ( in mb ) Visibility ( mi km ) Precip ( " mm )
12:52 am 00:52 Partly Cloudy 26 -3.3 7 -13.9 44 44 WNW 10 17 29.98 1015 10 16 0.00 0.00
1:52 am 01:52 Mostly Clear 25 -3.9 7 -13.9 46 46 NW 18 30 29.98 1015 10 16 0.00 0.00
2:52 am 02:52 Mostly Cloudy 24 -4.4 5 -15 44 44 WNW 13 20 29.99 1016 10 16 0.00 0.00
3:52 am 03:52 Mostly Clear 24 -4.4 5 -15 44 44 WNW 14 22 30.00 1016 10 16 0.00 0.00
4:52 am 04:52 Mostly Clear 23 -5 5 -15 46 46 WNW 13 20 30.02 1017 10 16 0.00 0.00
5:52 am 05:52 Mostly Clear 22 -5.6 5 -15 48 48 W 8 13 30.05 1018 10 16 0.00 0.00
6:52 am 06:52 Mostly Clear 22 -5.6 3 -16.1 44 44 WNW 13 20 30.07 1018 10 16 0.00 0.00
7:52 am 07:52 Mostly Sunny 22 -5.6 3 -16.1 44 44 W 12 19 30.10 1019 10 16 0.00 0.00
8:52 am 08:52 Partly Cloudy 23 -5 2 -16.7 40 40 W 18 30 30.13 1020 10 16 0.00 0.00
9:52 am 09:52 Partly Cloudy 24 -4.4 1 -17.2 36 36 WNW 18 30 30.14 1021 10 16 0.00 0.00
10:52 am 10:52 Partly Cloudy 26 -3.3 1 -17.2 34 34 WNW 20 31 30.14 1021 10 16 0.00 0.00
11:52 am 11:52 Partly Cloudy 28 -2.2 1 -17.2 31 31 W 20 31 30.14 1021 10 16 0.00 0.00
12:52 pm 12:52 Mostly Cloudy 30 -1.1 3 -16.1 31 31 WNW 16 26 30.13 1020 10 16 0.00 0.00
1:52 pm 13:52 Partly Cloudy 28 -2.2 2 -16.7 32 32 NW 20 31 30.12 1020 10 16 0.00 0.00
2:52 pm 14:52 Partly Cloudy 30 -1.1 2 -16.7 30 30 WNW 18 30 30.13 1020 10 16 0.00 0.00
3:52 pm 15:52 Partly Cloudy 29 -1.7 0 -17.8 28 28 NW 16 26 30.16 1021 10 16 0.00 0.00
4:52 pm 16:52 Mostly Sunny 28 -2.2 0 -17.8 29 29 W 14 22 30.20 1023 10 16 0.00 0.00
5:52 pm 17:52 Mostly Clear 26 -3.3 0 -17.8 32 32 NW 16 26 30.24 1024 10 16 0.00 0.00
6:52 pm 18:52 Mostly Clear 25 -3.9 0 -17.8 33 33 WNW 16 26 30.27 1025 10 16 0.00 0.00
7:52 pm 19:52 Clear 24 -4.4 0 -17.8 35 35 WNW 10 17 30.29 1026 10 16 0.00 0.00
8:52 pm 20:52 Clear 23 -5 1 -17.2 38 38 NW 12 19 30.32 1027 10 16 0.00 0.00
9:52 pm 21:52 Clear 23 -5 0 -17.8 36 36 NNW 8 13 30.32 1027 10 16 0.00 0.00
10:52 pm 22:52 Clear 23 -5 1 -17.2 38 38 WNW 12 19 30.33 1027 10 16 0.00 0.00
11:52 pm 23:52 Clear 22 -5.6 1 -17.2 40 40 W 6 9 30.34 1028 10 16 0.00 0.00

Powered by AerisWeather